1998-067RC (45259 NORAD) Tracking and Keplerian Element Data

This shows tracking and keplerian element data for the satellite.

Feedback or suggestion? Click here.




ElementValue
Catalog45259
Name1998-067RC
Epoch Orbit680
Epoch Day94.03861935
Epoch Year2020
RAAN0.0244
Inclination51.6433
Eccentricity0.0008506
Argument of Perigee82.9401
Mean Anonmoly277.2555
Mean Motion15.50369194
Decay Rate7.062E-05
L11 45259U 98067RC 20094.03861935 .00007062 00000-0 12985-3 0 9998
L22 45259 51.6433 0.0244 0008506 82.9401 277.2555 15.50369194 6802

Live tracking and technical data element details for 1998-067RC (NORAD 45259). 1998-067RC can be tracked NOW for your location showing map with azimuth and elevation plus other details from your city location.

Track the satellite on the map from your city or location and see movement details for azimuth, elevation, latitude, longitude, range, height, and movement on the map or in text.







IsCatalogInMostPopularTable: catalog: 45259, numindb: 12
Update: records affected: 1



GetName: 45259 1998-067RC

Hit Count: updated at: Tue, 07 Apr 2020 16:26:53 GMT